• In Moldova, Republic
  • List of Countries
  • For 7 days
  • Water Temperature
  • Satellite Maps
  • Weather Map
  • Weather Widgets
  • user-avatar
    Login

    Hourly Weather Ali Bayramli

    Today, 22 September, Friday

    Time Temperature Precipitation Wind Pressure Humidity
    00:00 +26°C° 0 mm 2 mps 757 mmHg 59%
    01:00 +26°C° 0 mm 2 mps 757 mmHg 60%
    02:00 +26°C° 0 mm 1 mps 757 mmHg 61%
    03:00 +25°C° 0 mm 1 mps 757 mmHg 62%
    04:00 +25°C° 0 mm 1 mps 757 mmHg 63%
    05:00 +25°C° 0 mm 1 mps 757 mmHg 64%
    06:00 +25°C° 0 mm 1 mps 757 mmHg 65%
    07:00 +26°C° 0 mm 1 mps 757 mmHg 59%
    08:00 +28°C° 0 mm 2 mps 757 mmHg 54%
    09:00 +30°C° 0 mm 2 mps 757 mmHg 48%
    10:00 +31°C° 0 mm 2 mps 756 mmHg 44%
    11:00 +33°C° 0 mm 3 mps 756 mmHg 39%
    12:00 +35°C° 0 mm 3 mps 756 mmHg 34%
    13:00 +35°C° 0 mm 4 mps 756 mmHg 34%
    14:00 +35°C° 0 mm 5 mps 755 mmHg 33%
    15:00 +35°C° 0 mm 6 mps 755 mmHg 32%
    16:00 +34°C° 0 mm 5 mps 755 mmHg 36%
    17:00 +32°C° 0 mm 5 mps 755 mmHg 41%
    18:00 +30°C° 0 mm 5 mps 755 mmHg 46%
    19:00 +29°C° 0 mm 4 mps 756 mmHg 50%
    20:00 +29°C° 0 mm 4 mps 756 mmHg 55%
    21:00 +28°C° 0 mm 3 mps 756 mmHg 60%
    22:00 +28°C° 0 mm 3 mps 756 mmHg 61%
    23:00 +27°C° 0 mm 2 mps 757 mmHg 63%

    Tomorrow, 23 September, Saturday

    Time Temperature Precipitation Wind Pressure Humidity
    00:00 +27°C° 0 mm 2 mps 757 mmHg 64%
    01:00 +26°C° 0 mm 2 mps 757 mmHg 64%
    02:00 +26°C° 0 mm 2 mps 757 mmHg 65%
    03:00 +26°C° 0 mm 1 mps 757 mmHg 65%
    04:00 +26°C° 0 mm 1 mps 758 mmHg 64%
    05:00 +25°C° 0 mm 1 mps 758 mmHg 63%
    06:00 +25°C° 0 mm 1 mps 758 mmHg 62%
    07:00 +27°C° 0 mm 1 mps 759 mmHg 54%
    08:00 +29°C° 0 mm 1 mps 759 mmHg 45%
    09:00 +31°C° 0 mm 2 mps 759 mmHg 37%
    10:00 +32°C° 0 mm 2 mps 759 mmHg 32%
    11:00 +34°C° 0 mm 3 mps 759 mmHg 26%
    12:00 +35°C° 0 mm 4 mps 759 mmHg 21%
    13:00 +35°C° 0 mm 5 mps 759 mmHg 21%
    14:00 +35°C° 0 mm 6 mps 759 mmHg 21%
    15:00 +35°C° 0 mm 6 mps 758 mmHg 21%
    16:00 +34°C° 0 mm 6 mps 759 mmHg 25%
    17:00 +32°C° 0 mm 6 mps 759 mmHg 29%
    18:00 +30°C° 0 mm 6 mps 759 mmHg 34%
    19:00 +29°C° 0 mm 6 mps 759 mmHg 36%
    20:00 +29°C° 0 mm 6 mps 760 mmHg 39%
    21:00 +28°C° 0 mm 6 mps 760 mmHg 41%
    22:00 +27°C° 0 mm 6 mps 760 mmHg 44%
    23:00 +27°C° 0 mm 6 mps 760 mmHg 46%

    Day after tomorrow, 24 September, Sunday

    Time Temperature Precipitation Wind Pressure Humidity
    00:00 +26°C° 0 mm 6 mps 760 mmHg 48%
    01:00 +26°C° 0 mm 5 mps 760 mmHg 52%
    02:00 +25°C° 0 mm 5 mps 760 mmHg 55%
    03:00 +23°C° 0 mm 5 mps 760 mmHg 59%
    04:00 +23°C° 0 mm 4 mps 761 mmHg 61%
    05:00 +23°C° 0 mm 4 mps 761 mmHg 64%
    06:00 +22°C° 0 mm 4 mps 761 mmHg 66%
    07:00 +25°C° 0 mm 4 mps 762 mmHg 59%
    08:00 +27°C° 0 mm 4 mps 762 mmHg 52%
    09:00 +28°C° 0 mm 4 mps 762 mmHg 45%
    10:00 +29°C° 0 mm 4 mps 762 mmHg 40%
    11:00 +30°C° 0 mm 4 mps 762 mmHg 36%
    12:00 +32°C° 0 mm 4 mps 762 mmHg 31%
    13:00 +32°C° 0 mm 5 mps 762 mmHg 32%
    14:00 +32°C° 0 mm 6 mps 761 mmHg 33%
    15:00 +32°C° 0 mm 7 mps 761 mmHg 35%
    16:00 +30°C° 0 mm 7 mps 762 mmHg 41%
    17:00 +28°C° 0 mm 7 mps 762 mmHg 48%
    18:00 +27°C° 0 mm 7 mps 762 mmHg 55%
    19:00 +26°C° 0 mm 7 mps 762 mmHg 55%
    20:00 +26°C° 0 mm 6 mps 762 mmHg 55%
    21:00 +26°C° 0 mm 6 mps 763 mmHg 55%
    22:00 +25°C° 0 mm 5 mps 763 mmHg 56%
    23:00 +25°C° 0 mm 4 mps 763 mmHg 57%

    25 September, Monday

    Time Temperature Precipitation Wind Pressure Humidity
    00:00 +23°C° 0 mm 4 mps 762 mmHg 57%
    01:00 +24°C° 0 mm 3 mps 762 mmHg 59%
    02:00 +24°C° 0 mm 3 mps 762 mmHg 61%
    03:00 +22°C° 0 mm 3 mps 762 mmHg 63%
    04:00 +22°C° 0 mm 3 mps 762 mmHg 64%
    05:00 +23°C° 0 mm 2 mps 762 mmHg 65%
    06:00 +23°C° 0 mm 2 mps 763 mmHg 66%
    07:00 +24°C° 0 mm 2 mps 763 mmHg 60%
    08:00 +26°C° 0 mm 2 mps 763 mmHg 54%
    09:00 +27°C° 0 mm 2 mps 763 mmHg 47%
    10:00 +28°C° 0 mm 2 mps 763 mmHg 43%
    11:00 +29°C° 0 mm 2 mps 763 mmHg 39%
    12:00 +31°C° 0 mm 2 mps 763 mmHg 35%
    13:00 +32°C° 0 mm 4 mps 762 mmHg 34%
    14:00 +32°C° 0 mm 5 mps 762 mmHg 33%
    15:00 +32°C° 0 mm 7 mps 762 mmHg 32%
    16:00 +31°C° 0 mm 8 mps 762 mmHg 37%
    17:00 +28°C° 0 mm 8 mps 763 mmHg 42%
    18:00 +27°C° 0 mm 9 mps 763 mmHg 47%
    19:00 +26°C° 0 mm 9 mps 763 mmHg 50%
    20:00 +24°C° 0 mm 9 mps 763 mmHg 52%
    21:00 +24°C° 0 mm 8 mps 764 mmHg 55%
    22:00 +23°C° 0 mm 8 mps 764 mmHg 56%
    23:00 +23°C° 0 mm 8 mps 764 mmHg 58%

    26 September, Tuesday

    Time Temperature Precipitation Wind Pressure Humidity
    00:00 +22°C° 0 mm 7 mps 764 mmHg 59%
    01:00 +22°C° 0 mm 7 mps 764 mmHg 60%
    02:00 +22°C° 0 mm 6 mps 763 mmHg 62%
    03:00 +21°C° 0 mm 6 mps 763 mmHg 64%
    04:00 +21°C° 0 mm 6 mps 763 mmHg 65%
    05:00 +21°C° 0 mm 6 mps 764 mmHg 66%
    06:00 +21°C° 0 mm 5 mps 764 mmHg 68%
    07:00 +22°C° 0 mm 5 mps 764 mmHg 63%
    08:00 +23°C° 0 mm 5 mps 764 mmHg 58%
    09:00 +25°C° 0 mm 5 mps 764 mmHg 53%
    10:00 +25°C° 0 mm 5 mps 763 mmHg 52%
    11:00 +26°C° 0 mm 5 mps 763 mmHg 50%
    12:00 +26°C° 0 mm 5 mps 763 mmHg 48%
    13:00 +26°C° 0 mm 5 mps 762 mmHg 48%
    14:00 +26°C° 0 mm 5 mps 762 mmHg 47%
    15:00 +27°C° 0 mm 5 mps 762 mmHg 47%
    16:00 +26°C° 0 mm 5 mps 762 mmHg 50%
    17:00 +25°C° 0 mm 5 mps 762 mmHg 53%
    18:00 +23°C° 0 mm 5 mps 762 mmHg 56%
    19:00 +23°C° 0 mm 5 mps 762 mmHg 57%
    20:00 +23°C° 0 mm 4 mps 762 mmHg 58%
    21:00 +23°C° 0 mm 4 mps 762 mmHg 60%
    22:00 +22°C° 0 mm 4 mps 762 mmHg 61%
    23:00 +22°C° 0 mm 4 mps 761 mmHg 61%

    27 September, Wednesday

    Time Temperature Precipitation Wind Pressure Humidity
    00:00 +22°C° 0 mm 4 mps 761 mmHg 62%
    01:00 +22°C° 0 mm 4 mps 761 mmHg 62%
    02:00 +22°C° 0 mm 4 mps 761 mmHg 63%
    03:00 +22°C° 0 mm 5 mps 761 mmHg 63%
    04:00 +22°C° 0.1 mm 5 mps 761 mmHg 64%
    05:00 +22°C° 0.1 mm 5 mps 761 mmHg 65%
    06:00 +22°C° 0.1 mm 5 mps 761 mmHg 66%
    07:00 +22°C° 0.1 mm 6 mps 762 mmHg 64%
    08:00 +21°C° 0.1 mm 6 mps 762 mmHg 63%
    09:00 +21°C° 0.1 mm 6 mps 762 mmHg 62%
    10:00 +22°C° 0 mm 6 mps 762 mmHg 60%
    11:00 +22°C° 0 mm 6 mps 762 mmHg 59%
    12:00 +22°C° 0 mm 7 mps 762 mmHg 57%
    13:00 +22°C° 0 mm 7 mps 762 mmHg 55%
    14:00 +22°C° 0 mm 7 mps 763 mmHg 53%
    15:00 +22°C° 0 mm 7 mps 763 mmHg 51%
    16:00 +22°C° 0 mm 7 mps 763 mmHg 51%
    17:00 +22°C° 0 mm 7 mps 763 mmHg 51%
    18:00 +22°C° 0 mm 6 mps 764 mmHg 51%
    19:00 +22°C° 0 mm 6 mps 764 mmHg 51%
    20:00 +22°C° 0 mm 6 mps 764 mmHg 51%
    21:00 +21°C° 0 mm 6 mps 764 mmHg 51%
    22:00 +21°C° 0 mm 6 mps 764 mmHg 51%
    23:00 +21°C° 0 mm 6 mps 764 mmHg 51%
    Show more